星链-3811 (STARLINK-3811 )

导读

STARLINK-3811是美国太空探索技术公司(SpaceX)星链(Starlink)互联网卫星星座的组成部分,于2022年4月29日发射升空。星链星座旨在为全球提供高速低延迟互联网服务,该卫星加入星座后,进一步扩展了星链的全球覆盖范围,推动了全球卫星互联网组网进程。

Basic Information
目录编号:
52383
目录名称:
STARLINK-3811
国际标识:
2022-045BE
轨道中心:
EARTH
卫星名称:
星链-3811
卫星全名:
星链-3811 (STARLINK-3811 )
卫星状态:
在轨 (已飞行1589 天)
发射日期:
2022-04-29 UTC
国别 :
美国 (US)
星等 :
--
Orbit Information
数据来源 国际轨道数据
星历时间: 2026-09-03T21:07:48+0800
15小时前
查看轨道信息
半长轴: 6843.376km
偏心率: 0.0001393
轨道倾角: 53.160°
近地点辐角 63.841°
升交点赤经 88.998°
平近点角 296.273°
近地点: 464.285km
远地点: 466.193km
周期: 93.900分钟
每日圈数: 15.335473
Detailed Information
固有亮度:
5
最大亮度:
2.5
卫星平台:
Starlink v1.5
覆盖范围:
全球
运营商:
太空探索技术公司
运营商所在国:
美国
制造商(研发单位):
太空探索技术公司
制造商所在国:
美国
使用方式:
暂无
Satellite Introduction
星链(Starlink)计划是由太空探索技术公司(SpaceX)提出的一个巨型低轨卫星互联网星座项目,计划在2019年至2024年间在太空搭建由约1.2万颗卫星组成的“星链”网络,其中1584颗将部署在地球上空550千米处的近地轨道,并从2020年开始工作。该卫星仍在工作。
2D Orbit Map
3D Orbit Map
Orbit Altitude Analysis Chart
Orbit Inclination Analysis Chart
Orbit Comprehensive Analysis Chart
View Comprehensive Chart
Conjunction Data List
Event ID Objects TCA Miss Dist (km) Collision Risk Probability Collision Risk Index (CRI) Action
CDM_260903-235905-238306-798221
2026-09-03T
23:59:00+0000
2.569 km
极远距离
1.66685E-6 低风险 0.39
CDM_260904-092205-238306-834421
2026-09-04T
09:22:13+0000
2.523 km
极远距离
1.518531E-6 低风险 0.39
CDM_260905-064505-238305-356821
2026-09-05T
06:45:13+0000
2.456 km
极远距离
1.510535E-6 低风险 0.39
CDM_260904-052205-238305-634721
2026-09-04T
05:22:59+0000
2.791 km
极远距离
1.456601E-6 低风险 0.38
CDM_260904-225605-238306-001821
2026-09-04T
22:56:50+0000
2.509 km
极远距离
1.431419E-6 低风险 0.38
CDM_260829-170805-238306-921722
2026-08-29T
17:08:56+0000
2.907 km
极远距离
1.361015E-6 低风险 0.38
CDM_260904-143905-238305-372121
2026-09-04T
14:39:16+0000
2.513 km
极远距离
1.168495E-6 低风险 0.36
CDM_260903-024505-238305-893321
2026-09-03T
02:45:21+0000
2.866 km
极远距离
1.148297E-6 低风险 0.36
CDM_260905-005005-238306-625821
2026-09-05T
00:50:35+0000
2.746 km
极远距离
1.091617E-6 低风险 0.36
CDM_260903-022605-238306-447621
2026-09-03T
02:26:55+0000
2.721 km
极远距离
1.083601E-6 低风险 0.36